Location: Bremen
(53.0796°N, 8.8241°E)
Time: 02:56:16
(UTC+01:00)

ISS - Pass Details

Date: 13 January 2018
Orbit: 402 x 407 km, 51.6° (Epoch: 18 January)

Event Time Altitude Azimuth Distance (km) Brightness Sun altitude
Exits shadow 07:06:34 10° 238° (WSW) 1,485 -1.3 -12.2°
Reaches altitude 10° 07:06:45 10° 235° (SW) 1,465 -1.3 -12.2°
Maximum altitude 07:07:33 11° 221° (SW) 1,422 -1.3 -12.1°
Drops below altitude 10° 07:08:22 10° 207° (SSW) 1,463 -1.1 -12.0°
Sets 07:11:52 0° 167° (SSE) 2,318 0.5 -11.5°
